Location: Caltech
(34.1382°N, 118.1253°W)
Time: 22:51:49
(UTC-07:00)

Tiros 1 despin weight - Visible Passes

Search period start: 29 August 2015 00:00
Search period end: 08 September 2015 00:00
Orbit: 597 x 646 km, 48.2° (Epoch: 29 August)

Date Brightness Start Highest point End Pass type
(mag) Time Alt. Az. Time Alt. Az. Time Alt. Az.
04 Sep ? 05:25:47 10° S 05:29:19 23° SE 05:32:54 10° E visible
05 Sep ? 05:42:35 10° SSW 05:46:59 50° SE 05:51:20 10° ENE visible
06 Sep ? 04:22:18 14° SSE 04:23:28 16° SE 04:26:13 10° E visible
06 Sep ? 06:00:12 10° WSW 06:04:45 77° NW 06:09:15 10° NE visible
07 Sep ? 04:39:49 28° SSE 04:41:04 34° SE 04:45:11 10° ENE visible
